Temperature
19 18 18 18 18 18 18 18 18 18 18 18 17 17 17 17 17 17 16 16 16 16 16 16 16 16 16 16 16 16 16 17 17 17 18 18 18 18 18 18 18 18 18
19 19 18 18 18 18 18 18 18 18 18 17 17 17 17 17 16 16 16 16 16 16 16 15 15 15 16 16 16 16 16 16 17 17 17 18 18 18 18 18 18 18 18
20 19 19 18 18 18 18 18 18 17 17 17 17 17 16 16 16 16 16 16 15 15 15 15 15 15 15 15 15 15 16 16 16 17 17 18 18 18 18 18 18 18 18
20 20 19 18 18 18 17 17 17 17 16 16 16 16 16 16 16 15 15 15 15 15 15 15 15 15 15 15 15 15 15 16 16 16 17 17 18 18 18 18 18 18 18
21 20 19 19 18 18 18 17 17 16 16 16 15 15 15 15 15 15 15 15 15 15 15 15 15 15 14 15 15 15 15 15 16 16 17 17 17 17 17 18 18 18 18
21 20 20 19 19 18 18 18 17 16 16 15 15 15 14 14 14 14 14 14 14 14 14 14 14 14 14 14 14 14 15 15 15 16 16 16 17 17 17 17 17 18 18
21 21 20 19 19 19 18 18 17 16 16 15 15 14 14 14 14 14 14 14 14 14 14 14 14 14 14 14 14 14 14 14 15 15 16 16 16 17 17 17 17 17 18
22 21 20 20 19 19 18 17 17 16 15 15 14 14 14 13 13 13 13 13 13 13 13 13 13 13 13 13 13 13 13 14 14 14 15 15 16 16 16 16 17 17 17
22 21 21 20 19 19 18 17 16 16 15 15 14 14 13 13 13 13 13 13 13 13 13 13 12 12 12 12 12 12 13 13 13 14 14 15 15 15 16 16 16 16 16
22 21 21 20 19 18 17 17 16 15 15 14 14 13 13 13 12 12 12 12 12 12 12 12 12 12 12 12 12 12 12 12 12 13 13 14 14 14 15 15 15 15 16
21 21 20 19 18 17 16 16 15 14 14 13 13 13 12 12 12 12 12 12 11 11 11 11 11 11 11 11 11 11 11 12 12 12 12 13 13 13 14 14 15 15 15
21 20 19 18 17 16 15 15 14 13 13 13 12 12 12 11 11 11 11 11 11 11 11 11 11 11 11 11 11 11 11 11 11 11 12 12 12 12 13 13 14 14 14
20 19 18 17 16 15 14 14 13 13 12 12 11 11 11 10 10 10 10 10 10 10 10 10 10 10 11 11 11 11 11 11 11 11 11 11 11 12 12 12 13 13 13
19 18 17 16 15 14 14 13 12 12 11 11 10 10 10 10 9 9 9 9 9 9 9 10 10 10 10 10 10 10 11 11 11 11 11 11 11 11 11 11 12 12 13
19 17 16 15 14 14 13 12 12 11 11 10 10 10 9 9 9 9 9 9 9 9 9 9 9 9 9 10 10 10 10 10 10 10 10 10 11 10 11 11 11 11 12
18 16 15 14 14 13 12 12 11 10 10 9 9 9 9 9 8 8 8 8 8 8 8 8 8 8 9 9 9 10 10 10 10 10 10 10 10 10 10 10 11 11 11
17 16 15 14 13 12 12 11 10 10 9 9 9 9 8 8 8 8 8 8 8 8 8 8 8 8 8 8 9 9 9 9 10 10 10 10 10 10 10 10 10 10 10
15 15 14 13 13 12 11 10 10 9 9 9 8 8 8 8 7 7 7 7 7 7 7 7 7 7 7 8 8 8 8 9 9 9 10 10 10 10 10 10 10 10 10
15 14 13 13 12 11 10 10 9 9 9 8 8 8 7 7 7 7 7 7 7 7 7 7 7 7 7 7 7 8 8 8 9 9 9 9 9 10 10 10 9 10 10
14 13 13 12 11 10 10 9 9 8 8 8 7 7 7 7 7 7 7 7 7 7 7 7 7 7 7 7 7 7 7 8 8 8 9 9 9 9 9 9 9 9 9
14 13 12 11 11 10 9 9 8 8 7 7 7 7 7 7 7 7 7 7 7 7 6 6 7 7 7 7 7 7 7 7 8 8 8 9 9 9 9 9 9 9 9
13 13 12 11 10 9 9 8 8 7 7 7 7 7 7 7 7 7 7 7 7 6 6 6 6 7 7 7 7 7 7 7 7 8 8 9 9 9 9 9 9 9 9
13 12 11 11 10 9 9 8 8 7 7 7 7 7 7 7 7 7 7 7 7 6 6 6 6 6 7 7 7 7 7 7 7 7 8 8 8 9 9 9 9 9 9
12 12 11 10 9 9 8 8 7 7 7 7 7 7 7 7 7 7 7 7 7 6 6 6 6 6 6 6 6 6 6 7 7 7 7 8 8 8 8 9 9 9 8
12 11 10 10 9 8 8 8 7 7 7 7 7 7 7 7 7 7 7 7 7 6 6 6 6 6 6 6 6 6 6 7 7 7 7 7 8 8 8 8 8 8 8
12 11 10 9 9 8 8 7 7 7 7 6 7 7 7 7 7 7 7 7 7 7 6 6 6 6 6 6 6 6 6 6 6 7 7 7 7 8 8 8 8 8 8
Wind_Speed
8 7 8 8 9 8 8 7 6 5 4 3 4 4 4 4 3 3 3 4 5 6 5 6 5 5 6 7 7 6 7 6 5 5 5 6 8 8 7 7 7 8 10
7 7 7 7 8 7 5 5 5 5 4 3 3 3 3 4 2 2 2 3 4 4 5 4 4 4 5 6 6 6 4 4 5 4 4 4 5 6 9 7 8 7 6
8 7 7 7 6 5 5 5 4 4 4 5 4 4 3 3 3 3 2 3 4 4 3 4 4 4 3 4 6 6 5 5 4 6 5 3 3 3 5 7 7 6 4
8 7 7 6 5 4 4 3 2 2 3 5 5 6 6 5 5 4 3 4 4 3 3 3 4 4 3 3 4 4 4 4 4 4 3 2 1 1 2 3 5 6 6
7 6 5 4 3 2 2 2 2 0 2 4 6 6 6 6 6 6 6 5 4 3 2 2 3 4 3 4 3 3 3 3 4 4 3 3 3 3 2 3 4 4 6
6 5 3 3 2 2 1 1 0 1 3 4 6 6 8 8 8 9 8 6 4 3 2 1 1 2 3 4 4 3 4 3 4 4 3 2 2 3 3 3 4 5 5
5 4 4 4 4 4 3 2 2 3 3 5 6 6 8 8 9 10 8 7 5 4 2 1 0 2 2 3 3 3 3 3 4 5 4 3 3 2 2 2 3 3 3
2 2 2 3 3 4 2 3 4 4 5 5 6 7 8 7 7 8 8 8 7 6 5 3 3 3 3 3 2 2 3 3 3 4 4 4 4 2 2 2 2 2 2
1 2 3 4 5 6 5 5 5 6 6 7 7 8 8 8 8 9 9 8 7 8 6 4 4 4 4 4 3 3 3 3 3 3 3 3 3 2 2 2 2 2 3
5 5 5 5 6 6 6 7 7 8 8 8 8 11 8 8 9 9 9 9 9 9 9 9 8 7 6 6 5 5 4 4 4 3 3 3 3 2 2 2 2 3 3
7 8 8 8 8 9 9 8 8 9 9 9 9 9 9 9 9 9 9 9 9 9 9 9 9 9 8 8 7 7 6 6 5 4 5 5 4 3 2 2 2 3 3
9 9 10 10 10 10 10 10 9 9 9 9 9 9 9 9 10 11 10 10 10 9 9 9 10 10 10 9 9 10 9 8 8 7 6 6 5 5 4 3 4 3 3
9 10 9 10 10 10 10 10 10 10 10 10 10 10 10 10 10 11 10 10 10 10 10 10 9 10 10 10 10 10 9 9 9 8 8 7 7 6 5 5 4 4 4
9 9 8 8 9 9 9 11 10 11 11 11 11 11 10 10 11 11 11 11 11 10 10 10 10 10 10 11 10 10 10 10 10 9 8 8 8 8 7 6 6 5 5
10 11 10 9 9 10 10 10 11 11 11 11 12 11 11 11 11 12 12 11 11 13 11 11 11 10 10 12 12 10 12 11 11 10 9 10 10 10 8 7 6 6 5
12 13 12 12 11 11 12 12 11 11 11 12 13 12 12 12 12 12 12 11 11 11 11 11 11 12 13 13 10 9 9 9 11 10 10 10 10 11 12 10 8 7 7
12 13 13 12 10 11 10 12 12 12 12 13 14 12 12 13 13 15 13 13 12 12 12 11 11 11 12 13 12 11 8 9 9 10 10 11 12 12 10 11 11 9 9
12 12 13 13 12 11 11 12 14 14 13 14 13 13 13 14 13 13 13 12 11 11 11 12 12 11 12 13 13 11 9 9 9 9 9 10 8 10 9 9 10 10 9
11 11 12 13 12 12 13 14 15 14 15 15 14 14 15 15 15 15 14 12 12 11 11 11 12 11 11 12 11 11 8 8 10 10 9 10 10 10 11 9 9 9 8
11 11 12 12 11 11 12 14 15 15 15 16 16 15 15 15 16 15 14 12 11 11 11 11 11 11 10 11 12 12 8 9 9 9 9 12 11 12 13 9 8 8 8
11 12 12 11 10 11 12 13 15 15 15 16 16 15 15 15 15 13 11 12 11 10 10 11 10 10 10 10 13 14 10 9 9 8 9 8 13 15 15 12 8 8 6
12 13 11 11 10 11 12 13 14 14 15 16 16 16 15 15 14 12 12 11 10 10 10 9 9 8 8 9 11 14 14 10 7 7 6 6 12 16 16 12 9 9 7
12 12 13 12 11 11 12 14 14 14 15 16 16 16 16 13 12 12 11 10 8 7 7 7 7 6 5 5 9 12 13 12 7 4 3 5 10 13 11 12 12 9 6
11 11 13 13 12 12 12 12 13 13 14 16 16 15 14 13 12 9 8 8 7 7 6 6 5 4 3 3 4 6 7 9 8 6 4 6 9 9 9 9 8 8 7
10 11 11 12 13 13 12 13 13 13 15 15 15 14 13 12 11 9 7 7 5 4 6 6 5 4 3 2 1 3 5 6 7 6 5 5 6 7 7 7 8 9 9
10 11 12 12 13 13 12 12 12 12 14 14 14 12 11 10 10 9 8 5 5 4 4 4 4 3 1 0 1 2 3 4 4 4 5 7 7 8 9 9 9 9 10
Wind_Direction
93 85 79 82 82 76 73 68 61 50 22 19 354 348 344 336 330 325 347 329 312 302 288 284 278 271 257 246 244 240 230 228 230 238 253 238 222 208 208 207 215 206 202
112 104 104 97 89 84 82 82 66 47 23 14 334 306 307 299 310 339 333 323 314 310 299 296 285 277 267 264 259 243 228 234 221 216 235 234 218 211 208 196 207 215 195
128 123 114 106 100 90 74 69 55 37 16 348 329 335 322 308 331 333 333 340 325 313 305 308 295 282 268 258 257 243 223 232 227 216 222 230 214 195 196 197 193 182 179
133 133 132 123 116 117 111 107 85 32 3 342 347 339 326 330 335 334 335 335 316 306 307 314 322 313 299 277 263 242 234 240 248 242 240 253 336 228 174 202 178 172 182
139 138 138 134 132 146 149 154 154 34 335 327 320 320 321 326 326 327 317 311 296 277 290 328 346 348 332 325 318 311 260 246 249 255 242 237 228 226 207 201 180 183 183
155 160 164 167 199 238 272 296 111 299 296 299 305 307 307 308 307 303 299 296 288 283 274 274 10 345 337 336 330 318 283 271 276 278 269 248 228 224 218 193 193 193 190
171 181 201 219 227 244 256 279 296 292 291 293 300 304 304 301 290 284 287 291 293 294 289 317 352 299 301 305 314 321 302 286 281 278 274 271 267 259 253 224 217 204 182
170 216 250 256 269 285 303 309 307 303 298 292 292 290 289 285 288 299 311 308 302 294 281 263 245 247 255 270 282 285 290 293 291 278 279 275 278 293 287 264 247 225 213
313 305 310 314 316 323 333 336 330 321 311 302 297 286 279 284 289 292 288 284 283 287 293 293 271 254 246 248 249 252 254 254 259 273 286 283 282 286 290 289 284 240 221
333 334 333 340 350 350 353 349 339 331 325 316 305 303 304 300 291 287 285 283 281 280 279 272 263 253 242 236 235 237 239 238 232 232 244 260 265 270 278 270 275 276 251
344 342 349 360 358 351 344 344 340 333 325 318 310 306 302 298 295 287 281 279 276 273 271 268 264 256 245 233 228 233 233 235 235 235 230 230 238 245 254 259 260 261 267
345 349 353 355 350 344 340 336 332 325 321 319 316 312 311 308 304 302 299 297 292 283 276 268 262 259 255 239 229 229 231 226 226 226 226 226 226 224 233 235 238 242 257
352 353 357 352 344 340 336 329 326 323 321 319 316 314 313 311 306 302 299 296 292 288 283 278 272 265 260 251 237 229 225 226 224 221 221 220 213 216 218 223 229 228 232
354 355 357 347 342 335 330 325 322 321 319 319 315 311 309 306 303 301 298 294 290 287 282 277 273 269 265 259 247 235 229 224 221 216 217 220 217 215 211 217 217 217 218
349 351 348 340 336 332 328 324 324 323 321 316 312 310 308 305 303 302 298 295 292 289 287 284 277 271 267 262 254 241 237 225 221 215 213 219 217 218 215 219 207 205 208
347 344 339 337 334 330 327 328 324 323 322 317 312 308 305 305 301 298 295 292 290 289 286 282 279 275 270 270 275 260 252 234 221 215 213 221 220 214 208 207 194 191 205
343 341 338 333 330 329 332 329 327 325 320 313 310 311 311 309 307 306 304 299 294 290 284 280 275 270 267 269 269 261 256 254 234 218 209 219 221 205 207 207 205 206 213
344 339 332 329 330 333 334 332 327 321 317 315 316 317 316 313 309 305 302 298 293 288 283 279 274 267 262 255 250 250 245 251 243 225 211 213 225 213 205 208 208 210 211
343 333 329 329 332 335 336 329 322 321 320 321 322 319 316 312 309 306 303 300 294 287 281 278 271 265 261 248 240 235 240 241 242 233 222 214 217 209 199 204 210 213 214
338 332 331 332 332 336 333 325 322 324 325 324 320 318 314 310 307 303 300 297 292 286 283 279 271 264 260 244 227 221 233 234 233 228 225 221 214 203 197 204 210 213 216
336 337 337 333 335 334 331 325 325 327 327 322 319 316 312 309 304 303 301 298 294 289 285 282 274 263 254 242 223 214 224 229 227 225 221 217 203 195 195 202 211 214 212
338 340 336 333 335 336 332 327 326 328 325 322 318 316 314 312 312 308 304 301 298 293 288 285 279 266 254 238 222 213 218 229 235 232 225 210 194 190 191 199 204 194 195
339 338 335 332 335 337 335 328 327 326 325 322 319 317 316 314 311 309 308 307 303 297 295 292 289 280 260 232 214 210 215 223 235 240 217 189 187 186 192 204 197 189 203
336 337 335 333 335 335 333 330 328 328 326 323 320 318 317 316 316 312 309 309 309 308 309 307 304 301 287 247 209 204 209 213 223 230 204 181 187 194 197 189 196 206 217
337 337 335 334 334 335 333 332 331 330 326 322 319 319 318 316 314 313 311 310 317 312 307 313 315 319 313 314 255 214 205 200 201 194 188 193 192 200 203 199 195 204 214
337 337 337 336 334 334 332 332 333 331 325 321 321 319 319 319 317 316 315 308 298 293 284 284 294 310 325 289 131 145 155 161 166 189 200 206 209 210 210 207 206 207 211
Height
1504 1504 1504 1505 1505 1506 1507 1507 1508 1508 1508 1508 1508 1507 1507 1506 1505 1503 1502 1500 1498 1495 1494 1492 1492 1492 1491 1491 1493 1495 1496 1498 1501 1503 1504 1506 1507 1509 1510 1512 1514 1516 1518
1505 1505 1506 1506 1507 1507 1508 1508 1508 1508 1507 1507 1506 1506 1505 1504 1503 1501 1499 1497 1495 1492 1490 1489 1488 1488 1487 1487 1488 1489 1491 1493 1496 1498 1500 1502 1504 1504 1506 1507 1509 1512 1514
1505 1506 1507 1508 1508 1508 1508 1508 1508 1507 1507 1506 1505 1505 1503 1502 1501 1499 1497 1495 1493 1490 1489 1487 1485 1484 1484 1484 1484 1486 1487 1489 1492 1495 1498 1499 1498 1500 1502 1503 1505 1507 1510
1505 1507 1507 1508 1508 1509 1508 1508 1507 1506 1505 1505 1504 1503 1502 1500 1499 1497 1495 1492 1491 1489 1487 1485 1483 1482 1481 1482 1482 1482 1484 1486 1488 1491 1493 1495 1495 1497 1498 1500 1502 1503 1506
1505 1507 1507 1508 1508 1508 1508 1507 1506 1505 1504 1503 1502 1500 1499 1497 1496 1494 1492 1490 1488 1486 1484 1483 1481 1480 1480 1480 1480 1480 1482 1483 1486 1488 1490 1491 1492 1493 1495 1497 1499 1500 1502
1504 1506 1506 1507 1507 1507 1507 1506 1505 1503 1502 1500 1499 1497 1496 1494 1492 1490 1488 1487 1485 1484 1482 1480 1479 1478 1477 1477 1477 1478 1479 1480 1482 1484 1485 1487 1488 1490 1492 1493 1495 1497 1499
1502 1504 1504 1505 1505 1504 1504 1503 1502 1500 1498 1497 1495 1494 1492 1490 1488 1486 1485 1483 1482 1481 1479 1478 1476 1475 1475 1474 1474 1474 1475 1476 1478 1480 1481 1483 1484 1486 1488 1491 1492 1494 1496
1501 1501 1502 1502 1502 1502 1501 1500 1499 1497 1495 1493 1491 1490 1488 1486 1484 1482 1481 1479 1478 1477 1476 1474 1473 1472 1471 1471 1471 1470 1471 1472 1473 1475 1477 1478 1480 1482 1484 1487 1489 1491 1493
1498 1499 1500 1500 1500 1499 1498 1497 1496 1494 1492 1490 1487 1485 1483 1481 1479 1477 1475 1474 1473 1472 1471 1470 1469 1468 1468 1467 1467 1466 1466 1467 1468 1469 1471 1473 1475 1478 1480 1482 1485 1488 1489
1497 1497 1498 1498 1497 1496 1495 1494 1492 1490 1488 1485 1483 1481 1478 1476 1474 1471 1470 1468 1467 1466 1465 1464 1463 1463 1463 1462 1462 1462 1462 1463 1463 1463 1465 1467 1470 1472 1475 1477 1480 1483 1486
1495 1496 1496 1496 1495 1494 1493 1491 1488 1486 1484 1481 1478 1476 1473 1470 1468 1466 1464 1462 1460 1459 1458 1457 1457 1457 1457 1457 1457 1457 1458 1458 1458 1459 1460 1462 1464 1466 1469 1472 1474 1477 1480
1495 1495 1494 1494 1493 1491 1490 1487 1485 1482 1479 1476 1473 1470 1467 1465 1462 1460 1457 1455 1453 1452 1451 1450 1450 1450 1450 1450 1451 1451 1452 1453 1453 1454 1455 1456 1458 1461 1463 1466 1468 1471 1475
1493 1493 1493 1492 1491 1489 1486 1484 1481 1478 1475 1472 1468 1465 1462 1459 1456 1453 1451 1448 1446 1445 1444 1443 1442 1442 1443 1443 1444 1445 1446 1447 1448 1449 1450 1451 1453 1455 1457 1459 1462 1465 1468
1492 1492 1491 1490 1488 1486 1483 1480 1477 1474 1470 1467 1463 1460 1456 1453 1450 1447 1444 1442 1439 1437 1436 1435 1434 1434 1434 1435 1436 1437 1439 1440 1442 1443 1444 1446 1447 1449 1451 1454 1456 1459 1462
1491 1490 1489 1487 1485 1482 1479 1476 1472 1469 1465 1462 1458 1454 1451 1447 1443 1440 1437 1434 1432 1430 1428 1427 1426 1425 1426 1427 1428 1430 1431 1433 1435 1437 1439 1440 1442 1444 1446 1449 1451 1453 1457
1489 1488 1486 1484 1481 1478 1475 1472 1468 1464 1460 1456 1452 1448 1445 1441 1437 1434 1430 1427 1424 1422 1420 1418 1417 1416 1417 1419 1420 1421 1423 1425 1427 1429 1432 1435 1437 1439 1441 1444 1446 1448 1451
1487 1486 1484 1481 1478 1475 1471 1467 1463 1459 1455 1451 1447 1443 1439 1435 1431 1428 1424 1420 1417 1414 1411 1410 1409 1407 1408 1409 1411 1412 1415 1417 1420 1422 1426 1429 1432 1434 1436 1438 1441 1443 1446
1485 1483 1481 1478 1475 1471 1467 1463 1459 1455 1451 1446 1442 1438 1434 1429 1425 1421 1417 1413 1410 1406 1403 1401 1400 1399 1399 1400 1402 1404 1406 1409 1412 1415 1419 1422 1426 1429 1431 1433 1435 1438 1440
1483 1481 1478 1474 1471 1467 1463 1459 1455 1451 1446 1442 1437 1433 1428 1423 1418 1414 1410 1406 1402 1399 1396 1394 1392 1391 1391 1392 1394 1396 1398 1401 1404 1409 1412 1416 1420 1423 1426 1428 1431 1433 1436
1480 1477 1474 1471 1467 1463 1459 1455 1451 1446 1442 1437 1432 1427 1422 1417 1412 1408 1404 1400 1396 1392 1390 1387 1385 1384 1384 1385 1386 1389 1391 1394 1398 1402 1406 1410 1414 1417 1420 1423 1426 1429 1431
1478 1474 1471 1468 1464 1460 1456 1451 1447 1443 1438 1432 1427 1422 1417 1412 1407 1402 1398 1394 1390 1387 1384 1381 1379 1378 1377 1378 1379 1382 1385 1388 1392 1396 1400 1404 1408 1412 1415 1419 1422 1424 1427
1475 1471 1468 1464 1460 1456 1452 1447 1443 1438 1433 1428 1422 1417 1412 1407 1403 1398 1393 1389 1385 1382 1379 1376 1374 1372 1372 1373 1374 1376 1379 1382 1386 1390 1394 1398 1402 1406 1410 1413 1417 1420 1423
1472 1469 1465 1461 1457 1453 1449 1444 1439 1434 1429 1423 1418 1413 1408 1403 1398 1394 1389 1385 1382 1378 1375 1373 1370 1368 1368 1368 1369 1371 1374 1377 1381 1385 1389 1393 1397 1401 1405 1408 1412 1415 1418
1469 1466 1462 1458 1454 1450 1445 1441 1435 1430 1425 1420 1414 1409 1404 1400 1395 1391 1387 1383 1379 1376 1373 1370 1368 1366 1365 1365 1366 1367 1370 1373 1377 1381 1385 1389 1392 1396 1400 1403 1406 1409 1412
1466 1463 1459 1455 1451 1446 1442 1437 1432 1427 1422 1416 1411 1406 1402 1397 1392 1388 1385 1381 1377 1374 1371 1368 1366 1364 1363 1363 1364 1365 1367 1370 1374 1378 1381 1385 1388 1392 1395 1398 1401 1404 1407
1464 1460 1456 1452 1448 1443 1439 1434 1429 1424 1419 1413 1408 1404 1399 1395 1391 1386 1382 1378 1376 1372 1369 1366 1365 1363 1362 1362 1363 1364 1366 1368 1372 1375 1378 1381 1385 1388 1391 1394 1396 1399 1401